KAVXKSAN

Guest
Details From KAVX - Catalina
To KSAN - San Diego Intl
Flight Number -
Tags generated
Created
Modified
Stats Distance 74 nm / 137 km
Max Altitude 3,300 ft / 1,006 m
Waypoints 3
Social Downloads 0
Likes 0
Share VATSIM

Download

Looking for another format? Having issues loading an existing format? Contact us
Advertisement - Login to hide

Notes

Basic altitude profile: - Ascent Rate: 2500ft/min - Ascent Speed: 250kts - Cruise Altitude: 35000ft - Cruise Speed: 420kts - Descent Rate: 1500ft/min - Descent Speed: 250kts Options: - Use NATs: yes - Use PACOTS: yes - Use low airways: yes - Use high airways: yes

Route

KAVX AVOLS KSAN

ID Type Via Altitude Latitude Longitude Leg Dist Tot Dist Heading (true) Name
O KAVX APT - 0 ft / 0 m 33.40466˚ -118.41588˚ - 0 nm - Catalina
AVOLS FIX - 3,300 ft / 1,006 m 33.35179˚ -118.24184˚ 9 nm 9 nm 110° / 110° -
O KSAN APT - 0 ft / 0 m 32.73356˚ -117.18966˚ 64 nm 73 nm 125° / 125° San Diego Intl

Altitude Profile

Advertisement - Login to hide

KAVX

Details ICAO KAVX (AVX)
Name Catalina
Region United States
Timezone America/Los_Angeles (UTC-8.0)
Stats Elevation 1,601 ft / 488 m (AMSL)
Location 33.404656° -118.415880°
Runways 1
Magnetic Variation 11.900° E

METAR

KAVX 180251Z AUTO 05007KT 10SM CLR 16/M04 A3002 RMK AO2 SLP157 T01561044 53018

Decode

TAF

Not found

Departure Runways

ID Width Length Bearing (true) Bearing (mag) Surface Threshold Offset Overrun Length
04 59 ft / 18 m 3,127 ft / 953 m 54.93° 43.03° Asphalt 131 ft / 40 m 0 ft / 0 m
22 59 ft / 18 m 3,127 ft / 953 m 234.93° 223.03° Asphalt 62 ft / 19 m 0 ft / 0 m

KSAN

Details ICAO KSAN (SAN)
Name San Diego Intl
Region United States
Timezone America/Los_Angeles (UTC-8.0)
Stats Elevation 17 ft / 5 m (AMSL)
Location 32.733556° -117.189658°
Runways 1
Magnetic Variation 11.524° E

METAR

KSAN 180251Z 02006KT 10SM CLR 17/04 A3000 RMK AO2 SLP159 T01720044 53023

Decode

TAF

TAF AMD KSAN 180303Z 1803/1906 VRB06KT P6SM SKC FM182000 28009KT P6SM SKC FM190100 VRB05KT P6SM SKC

Decode

Destination Runways

ID Width Length Bearing (true) Bearing (mag) Surface Threshold Offset Overrun Length
09 200 ft / 61 m 9,387 ft / 2,861 m 106.07° 94.55° Asphalt 699 ft / 213 m 269 ft / 82 m
27 200 ft / 61 m 9,387 ft / 2,861 m 286.08° 274.56° Asphalt 1,811 ft / 552 m 0 ft / 0 m

Approach Navaids

Runway Type Ident Frequency Range Bearing (true) Bearing (mag) Slope Elevation
09 Localiser ISAN 111.55 MHz 18 nm / 33 km 106.08° 94.55° - 17 ft / 5 m (AMSL)
09 Glidescope ISAN 111.55 MHz 10 nm / 19 km 106.08° 94.55° 3.22° 13 ft / 4 m (AMSL)
09 DME ISAN 111.55 MHz 18 nm / 33 km - - - 29 ft / 9 m (AMSL)
27 Localiser IUBR 110.90 MHz 18 nm / 33 km 286.07° 274.54° - 13 ft / 4 m (AMSL)
27 DME IUBR 110.90 MHz 18 nm / 33 km - - - 26 ft / 8 m (AMSL)

Popular Alternatives